Prescott, AZ

10:03 PM MST on September 28, 2016 (GMT -0700)
Love

Weather History for KPRC - February, 2014

Change the Weather History Date:

Friday, February 14, 2014

  Actual Average Record
Temperature  
Mean Temperature 55 °F 41 °F  
Max Temperature 76 °F 55 °F 76 °F (2014)
Min Temperature 34 °F 28 °F 5 °F (1949)
Degree Days  
Heating Degree Days 10    
Month to date heating degree days 313  
Since 1 July heating degree days 2705  
Cooling Degree Days 0    
Month to date cooling degree days 0  
Year to date cooling degree days 0  
Growing Degree Days 5 (Base 50)    
Moisture  
Dew Point 21 °F    
Average Humidity 33    
Maximum Humidity 56    
Minimum Humidity 10    
Precipitation  
Precipitation 0.00 in 0.05 in 0.98 in (1980)
Month to date precipitation T 0.63  
Year to date precipitation 0.05 1.75  
Sea Level Pressure  
Sea Level Pressure 30.04 in    
Wind  
Wind Speed 6 mph (South)    
Max Wind Speed 15 mph    
Max Gust Speed 23 mph    
Visibility 10 miles    
Events      
T = Trace of Precipitation, MM = Missing Value Source: NWS Daily Summary

Daily Weather History Graph

Daily Weather History Graph

Search for Another Location

Airport or City:

Trip Planner

Search our weather history database for the weather conditions in past years. The results will help you decide how hot, cold, wet, or windy it might be!

Date:

Astronomy

Feb. 14, 2014 Rise Set
Actual Time 7:16 AM MST 6:12 PM MST
Civil Twilight 6:50 AM MST 6:37 PM MST
Nautical Twilight 6:20 AM MST 7:07 PM MST
Astronomical Twilight 5:51 AM MST 7:36 PM MST
Moon 6:17 PM MST (2/14) 6:46 AM MST (2/14)
Length of Visible Light 11h 47m
Length of Day
10h 55m
Full, 100% of the Moon is Illuminated
Feb 14
Full
Feb 14
Full
Feb 22
Last Quarter
Mar 1
New
Mar 8
First Quarter

Hourly Weather History & Observations

Time (MST) Temp. Windchill Dew Point Humidity Pressure Visibility Wind Dir Wind Speed Gust Speed Precip Events Conditions
12:53 AM 41.0 °F 35.8 °F 23.0 °F 49% 30.01 in 10.0 mi South 8.1 mph - N/A   Clear
1:53 AM 39.9 °F 35.1 °F 24.1 °F 53% 30.01 in 10.0 mi South 6.9 mph - N/A   Clear
2:53 AM 41.0 °F 38.0 °F 23.0 °F 49% 30.00 in 10.0 mi South 4.6 mph - N/A   Clear
3:53 AM 39.0 °F 33.4 °F 21.9 °F 50% 30.01 in 10.0 mi South 8.1 mph - N/A   Clear
4:53 AM 37.9 °F 34.4 °F 21.9 °F 53% 30.01 in 10.0 mi SSW 4.6 mph - N/A   Clear
5:53 AM 39.9 °F 36.7 °F 21.9 °F 49% 30.03 in 10.0 mi SW 4.6 mph - N/A   Clear
6:53 AM 35.1 °F 31.0 °F 21.9 °F 59% 30.08 in 10.0 mi South 4.6 mph - N/A   Clear
7:53 AM 36.0 °F - 21.9 °F 57% 30.12 in 10.0 mi Calm Calm - N/A   Clear
8:53 AM 48.0 °F - 24.1 °F 39% 30.11 in 10.0 mi SSW 4.6 mph - N/A   Clear
9:53 AM 59.0 °F - 24.1 °F 26% 30.09 in 10.0 mi South 3.5 mph - N/A   Clear
10:53 AM 64.9 °F - 24.1 °F 21% 30.08 in 10.0 mi NNE 6.9 mph - N/A   Clear
11:53 AM 66.9 °F - 23.0 °F 19% 30.06 in 10.0 mi NE 4.6 mph - N/A   Clear
12:53 PM 70.0 °F - 21.0 °F 16% 30.04 in 10.0 mi NNE 3.5 mph - N/A   Clear
1:53 PM 73.9 °F - 19.9 °F 13% 30.01 in 10.0 mi North 4.6 mph - N/A   Clear
2:53 PM 75.0 °F - 16.0 °F 11% 29.99 in 10.0 mi NNE 11.5 mph - N/A   Clear
3:53 PM 75.0 °F - 17.1 °F 11% 30.00 in 10.0 mi North 10.4 mph - N/A   Clear
4:53 PM 73.9 °F - 16.0 °F 11% 30.00 in 10.0 mi NE 5.8 mph - N/A   Clear
5:53 PM 69.1 °F - 19.0 °F 15% 30.01 in 10.0 mi WSW 6.9 mph - N/A   Clear
6:53 PM 62.1 °F - 18.0 °F 18% 30.04 in 10.0 mi Variable 6.9 mph - N/A   Clear
7:53 PM 57.9 °F - 19.9 °F 23% 30.07 in 10.0 mi South 6.9 mph - N/A   Clear
8:53 PM 55.0 °F - 21.0 °F 27% 30.06 in 10.0 mi Calm Calm - N/A   Clear
9:53 PM 48.9 °F - 21.9 °F 35% 30.05 in 10.0 mi South 5.8 mph - N/A   Clear
10:53 PM 46.0 °F 42.5 °F 21.9 °F 39% 30.04 in 10.0 mi South 6.9 mph - N/A   Clear
11:53 PM 44.1 °F 40.1 °F 21.0 °F 40% 30.04 in 10.0 mi South 6.9 mph - N/A   Clear